• In Germany
  • List of Countries
  • For 7 days
  • Water Temperature
  • Satellite Maps
  • Weather Map
  • Weather Widgets
  • user-avatar
    Login

    Hourly Weather Rio Branco

    Today, 18 June, Monday

    Time Temperature Precipitation Wind Pressure Humidity
    00:00 +20°C° 0 mm 1 mps 752 mmHg 86%
    01:00 +20°C° 0 mm 1 mps 752 mmHg 88%
    02:00 +19°C° 0 mm 1 mps 752 mmHg 90%
    03:00 +19°C° 0 mm 1 mps 752 mmHg 91%
    04:00 +19°C° 0 mm 1 mps 752 mmHg 92%
    05:00 +20°C° 0 mm 1 mps 752 mmHg 89%
    06:00 +20°C° 0 mm 1 mps 752 mmHg 86%
    07:00 +21°C° 0 mm 2 mps 753 mmHg 81%
    08:00 +24°C° 0 mm 2 mps 753 mmHg 73%
    09:00 +26°C° 0 mm 2 mps 753 mmHg 66%
    10:00 +28°C° 0 mm 2 mps 753 mmHg 58%
    11:00 +29°C° 0 mm 2 mps 752 mmHg 55%
    12:00 +30°C° 0 mm 2 mps 752 mmHg 52%
    13:00 +31°C° 0 mm 2 mps 751 mmHg 49%
    14:00 +31°C° 0 mm 1 mps 750 mmHg 52%
    15:00 +30°C° 0 mm 1 mps 750 mmHg 55%
    16:00 +30°C° 0 mm 1 mps 749 mmHg 58%
    17:00 +28°C° 0 mm 1 mps 749 mmHg 64%
    18:00 +26°C° 0 mm 1 mps 750 mmHg 70%
    19:00 +24°C° 0 mm 1 mps 750 mmHg 76%
    20:00 +23°C° 0 mm 1 mps 750 mmHg 78%
    21:00 +23°C° 0 mm 1 mps 750 mmHg 80%
    22:00 +22°C° 0 mm 1 mps 751 mmHg 81%
    23:00 +22°C° 0 mm 1 mps 751 mmHg 83%

    Tomorrow, 19 June, Tuesday

    Time Temperature Precipitation Wind Pressure Humidity
    00:00 +21°C° 0 mm 1 mps 750 mmHg 84%
    01:00 +21°C° 0 mm 1 mps 750 mmHg 86%
    02:00 +20°C° 0 mm 1 mps 750 mmHg 88%
    03:00 +20°C° 0 mm 1 mps 750 mmHg 89%
    04:00 +20°C° 0 mm 1 mps 750 mmHg 91%
    05:00 +20°C° 0 mm 1 mps 750 mmHg 88%
    06:00 +21°C° 0 mm 1 mps 750 mmHg 86%
    07:00 +21°C° 0 mm 1 mps 751 mmHg 83%
    08:00 +24°C° 0 mm 1 mps 751 mmHg 74%
    09:00 +27°C° 0 mm 1 mps 751 mmHg 65%
    10:00 +29°C° 0 mm 1 mps 751 mmHg 55%
    11:00 +30°C° 0 mm 1 mps 750 mmHg 52%
    12:00 +31°C° 0 mm 1 mps 750 mmHg 48%
    13:00 +33°C° 0 mm 1 mps 749 mmHg 44%
    14:00 +32°C° 0 mm 1 mps 748 mmHg 48%
    15:00 +32°C° 0 mm 1 mps 748 mmHg 51%
    16:00 +29°C° 0 mm 0 mps 747 mmHg 55%
    17:00 +27°C° 0 mm 0 mps 747 mmHg 61%
    18:00 +25°C° 0 mm 0 mps 748 mmHg 66%
    19:00 +22°C° 0 mm 0 mps 748 mmHg 72%
    20:00 +22°C° 0 mm 0 mps 748 mmHg 73%
    21:00 +21°C° 0 mm 0 mps 749 mmHg 75%
    22:00 +21°C° 0 mm 0 mps 749 mmHg 77%
    23:00 +20°C° 0 mm 0 mps 749 mmHg 78%

    Day after tomorrow, 20 June, Wednesday

    Time Temperature Precipitation Wind Pressure Humidity
    00:00 +20°C° 0 mm 0 mps 749 mmHg 79%
    01:00 +20°C° 0 mm 0 mps 749 mmHg 80%
    02:00 +19°C° 0 mm 0 mps 748 mmHg 82%
    03:00 +19°C° 0 mm 0 mps 748 mmHg 83%
    04:00 +18°C° 0 mm 0 mps 748 mmHg 84%
    05:00 +19°C° 0 mm 0 mps 749 mmHg 82%
    06:00 +19°C° 0 mm 0 mps 749 mmHg 80%
    07:00 +20°C° 0 mm 0 mps 749 mmHg 78%
    08:00 +25°C° 0 mm 1 mps 750 mmHg 68%
    09:00 +28°C° 0 mm 1 mps 750 mmHg 58%
    10:00 +31°C° 0 mm 1 mps 750 mmHg 47%
    11:00 +32°C° 0 mm 1 mps 750 mmHg 44%
    12:00 +31°C° 0 mm 0 mps 749 mmHg 41%
    13:00 +32°C° 0 mm 0 mps 748 mmHg 37%
    14:00 +32°C° 0 mm 0 mps 747 mmHg 41%
    15:00 +31°C° 0 mm 0 mps 747 mmHg 45%
    16:00 +30°C° 0 mm 0 mps 746 mmHg 49%
    17:00 +28°C° 0 mm 0 mps 746 mmHg 54%
    18:00 +27°C° 0 mm 1 mps 747 mmHg 59%
    19:00 +25°C° 0 mm 1 mps 747 mmHg 64%
    20:00 +23°C° 0 mm 0 mps 748 mmHg 64%
    21:00 +22°C° 0 mm 0 mps 748 mmHg 64%
    22:00 +22°C° 0 mm 0 mps 749 mmHg 64%
    23:00 +22°C° 0 mm 0 mps 748 mmHg 65%

    21 June, Thursday

    Time Temperature Precipitation Wind Pressure Humidity
    00:00 +21°C° 0 mm 0 mps 748 mmHg 66%
    01:00 +21°C° 0 mm 0 mps 748 mmHg 67%
    02:00 +21°C° 0 mm 0 mps 748 mmHg 68%
    03:00 +20°C° 0 mm 0 mps 748 mmHg 70%
    04:00 +20°C° 0 mm 0 mps 748 mmHg 71%
    05:00 +21°C° 0 mm 0 mps 749 mmHg 71%
    06:00 +21°C° 0 mm 0 mps 749 mmHg 71%
    07:00 +22°C° 0 mm 0 mps 750 mmHg 71%
    08:00 +25°C° 0 mm 0 mps 750 mmHg 62%
    09:00 +28°C° 0 mm 0 mps 750 mmHg 52%
    10:00 +31°C° 0 mm 0 mps 750 mmHg 43%
    11:00 +32°C° 0 mm 0 mps 749 mmHg 40%
    12:00 +33°C° 0 mm 0 mps 749 mmHg 37%
    13:00 +34°C° 0 mm 0 mps 748 mmHg 34%
    14:00 +32°C° 0 mm 0 mps 747 mmHg 39%
    15:00 +31°C° 0 mm 0 mps 746 mmHg 44%
    16:00 +30°C° 0 mm 0 mps 746 mmHg 50%
    17:00 +28°C° 0 mm 0 mps 746 mmHg 52%
    18:00 +26°C° 0 mm 0 mps 747 mmHg 55%
    19:00 +25°C° 0 mm 0 mps 747 mmHg 58%
    20:00 +24°C° 0 mm 0 mps 747 mmHg 59%
    21:00 +24°C° 0 mm 0 mps 748 mmHg 61%
    22:00 +23°C° 0 mm 0 mps 748 mmHg 62%
    23:00 +23°C° 0 mm 0 mps 748 mmHg 65%

    22 June, Friday

    Time Temperature Precipitation Wind Pressure Humidity
    00:00 +22°C° 0 mm 0 mps 748 mmHg 67%
    01:00 +21°C° 0 mm 0 mps 747 mmHg 69%
    02:00 +21°C° 0 mm 0 mps 747 mmHg 70%
    03:00 +21°C° 0 mm 0 mps 747 mmHg 70%
    04:00 +21°C° 0 mm 0 mps 747 mmHg 71%
    05:00 +21°C° 0 mm 0 mps 748 mmHg 71%
    06:00 +22°C° 0 mm 0 mps 749 mmHg 72%
    07:00 +22°C° 0 mm 0 mps 749 mmHg 72%
    08:00 +25°C° 0 mm 0 mps 749 mmHg 63%
    09:00 +28°C° 0 mm 0 mps 750 mmHg 54%
    10:00 +31°C° 0 mm 0 mps 750 mmHg 46%
    11:00 +32°C° 0 mm 0 mps 749 mmHg 43%
    12:00 +33°C° 0 mm 0 mps 748 mmHg 40%
    13:00 +34°C° 0 mm 0 mps 747 mmHg 38%
    14:00 +33°C° 0 mm 0 mps 746 mmHg 42%
    15:00 +32°C° 0 mm 0 mps 746 mmHg 46%
    16:00 +31°C° 0 mm 0 mps 745 mmHg 51%
    17:00 +29°C° 0 mm 0 mps 745 mmHg 55%
    18:00 +27°C° 0 mm 0 mps 746 mmHg 58%
    19:00 +25°C° 0 mm 0 mps 746 mmHg 62%
    20:00 +24°C° 0 mm 0 mps 746 mmHg 63%
    21:00 +24°C° 0 mm 0 mps 746 mmHg 64%
    22:00 +24°C° 0 mm 0 mps 747 mmHg 65%
    23:00 +23°C° 0 mm 0 mps 746 mmHg 66%

    23 June, Saturday

    Time Temperature Precipitation Wind Pressure Humidity
    00:00 +23°C° 0 mm 0 mps 746 mmHg 67%
    01:00 +23°C° 0 mm 0 mps 746 mmHg 69%
    02:00 +22°C° 0 mm 0 mps 746 mmHg 70%
    03:00 +22°C° 0 mm 0 mps 746 mmHg 71%
    04:00 +22°C° 0 mm 0 mps 746 mmHg 72%
    05:00 +22°C° 0 mm 0 mps 746 mmHg 72%
    06:00 +23°C° 0 mm 0 mps 747 mmHg 73%
    07:00 +23°C° 0 mm 0 mps 748 mmHg 73%
    08:00 +26°C° 0 mm 0 mps 748 mmHg 65%
    09:00 +30°C° 0 mm 1 mps 748 mmHg 58%
    10:00 +32°C° 0 mm 1 mps 748 mmHg 50%
    11:00 +33°C° 0 mm 1 mps 747 mmHg 48%
    12:00 +34°C° 0 mm 1 mps 746 mmHg 45%
    13:00 +35°C° 0 mm 1 mps 745 mmHg 43%
    14:00 +34°C° 0 mm 1 mps 745 mmHg 47%
    15:00 +34°C° 0 mm 1 mps 744 mmHg 52%
    16:00 +31°C° 0 mm 0 mps 743 mmHg 57%
    17:00 +29°C° 0 mm 0 mps 744 mmHg 60%
    18:00 +28°C° 0 mm 0 mps 744 mmHg 63%
    19:00 +26°C° 0 mm 0 mps 745 mmHg 67%
    20:00 +26°C° 0 mm 0 mps 745 mmHg 69%
    21:00 +25°C° 0 mm 0 mps 745 mmHg 71%
    22:00 +27°C° 0 mm 1 mps 746 mmHg 74%
    23:00 +27°C° 0 mm 1 mps 746 mmHg 76%
    Show more